FW9116 Weather Reports


Display with metric or nautical units.
time (UTC)temp
F
wind
direction
speed
MPH
gust
MPH
rain 1hr
in
rain 24hr
in
rain mn
in
humidity
%
barometer
mb
20260906145055 55 0 0.0 0.0 0.04 0.12 0.12 92 1015.6
20260906144603 55 0 0.0 0.0 0.04 0.11 0.11 92 1015.5
20260906144054 55 0 0.0 3.0 0.04 0.11 0.11 92 1015.5
20260906143555 55 0 0.0 3.0 0.05 0.11 0.11 92 1015.4
20260906143059 55 0 0.0 1.0 0.05 0.10 0.10 92 1015.4
20260906142555 56 0 0.0 1.0 0.05 0.10 0.10 92 1015.4
20260906142056 56 160 0.0 0.0 0.06 0.10 0.10 92 1015.3
20260906141602 56 0 0.0 0.0 0.06 0.09 0.09 92 1015.4
20260906141055 56 0 0.0 0.0 0.07 0.09 0.09 92 1015.3
20260906140555 56 0 0.0 3.0 0.06 0.08 0.08 92 1015.3
20260906140059 56 0 0.0 3.0 0.07 0.08 0.08 92 1015.3
20260906135555 56 0 0.0 3.0 0.07 0.08 0.08 91 1015.3
20260906135054 56 0 0.0 3.0 0.07 0.08 0.08 91 1015.3
20260906134618 56 0 0.0 3.0 0.06 0.07 0.07 91 1015.1
20260906134055 57 0 0.0 3.0 0.06 0.07 0.07 91 1015.0
20260906133555 57 0 0.0 1.0 0.05 0.06 0.06 91 1014.9
20260906133110 57 0 0.0 1.0 0.04 0.05 0.05 90 1014.9
20260906132555 57 0 0.0 1.0 0.04 0.05 0.05 90 1014.7
20260906132055 57 0 0.0 1.0 0.03 0.04 0.04 90 1014.6
20260906131602 57 0 0.0 2.0 0.02 0.03 0.03 90 1014.6
20260906131056 57 0 0.0 2.0 0.01 0.02 0.02 90 1014.7
20260906130557 57 0 0.0 2.0 0.01 0.02 0.02 90 1014.6
20260906130059 57 0 0.0 1.0 0.01 0.01 0.01 90 1014.6
20260906125555 57 0 0.0 1.0 0.01 0.01 0.01 90 1014.7
20260906125055 57 0 0.0 0.0 0.01 0.01 0.01 89 1014.7
20260906124601 58 0 0.0 0.0 0.01 0.01 0.01 89 1014.7
20260906124057 58 0 0.0 0.0 0.01 0.01 0.01 89 1014.6
20260906123554 58 0 0.0 0.0 0.01 0.01 0.01 89 1014.7
20260906123103 58 0 0.0 0.0 0.01 0.01 0.01 89 1014.7
20260906122555 58 0 0.0 2.0 0.01 0.01 0.01 89 1014.7
20260906122055 58 0 0.0 3.0 0.01 0.01 0.01 88 1014.9
20260906121607 58 0 0.0 3.0 0.01 0.01 0.01 88 1015.0
20260906121055 58 0 0.0 1.0 0.01 0.01 0.01 88 1015.0
20260906120554 58 0 0.0 1.0 0.01 0.01 0.01 88 1015.0
20260906115555 58 0 0.0 2.0 0.00 0.00 0.00 87 1015.2
20260906115054 58 0 0.0 3.0 0.00 0.00 0.00 87 1015.1
20260906114604 58 0 0.0 3.0 0.00 0.00 0.00 87 1015.0
20260906114057 58 0 0.0 3.0 0.00 0.00 0.00 87 1015.0
20260906113554 58 11 0.0 3.0 0.00 0.00 0.00 87 1014.9
20260906113102 58 0 0.0 3.0 0.00 0.00 0.00 87 1014.9
20260906112554 58 0 0.0 3.0 0.00 0.00 0.00 87 1015.0
20260906112058 58 0 0.0 3.0 0.00 0.00 0.00 87 1015.0
20260906111604 58 0 0.0 3.0 0.00 0.00 0.00 87 1014.9
20260906111058 58 36 0.0 3.0 0.00 0.00 0.00 87 1014.9
20260906110554 58 0 0.0 3.0 0.00 0.00 0.00 87 1015.0
20260906110104 58 14 0.0 3.0 0.00 0.00 0.00 87 1014.9
20260906105555 59 0 0.0 1.0 0.00 0.00 0.00 87 1014.7
20260906105054 59 0 0.0 2.0 0.00 0.00 0.00 87 1014.6
20260906104603 59 0 0.0 3.0 0.00 0.00 0.00 87 1014.7
20260906104055 59 0 0.0 3.0 0.00 0.00 0.00 87 1014.9
20260906103556 59 0 0.0 4.0 0.00 0.00 0.00 87 1014.8
20260906103110 59 0 0.0 4.0 0.00 0.00 0.00 87 1014.8
20260906102556 59 0 0.0 3.0 0.00 0.00 0.00 87 1014.7
20260906102058 59 0 0.0 3.0 0.00 0.00 0.00 86 1014.8
20260906101602 59 0 0.0 3.0 0.00 0.00 0.00 86 1014.8
20260906101135 59 36 0.0 2.0 0.00 0.00 0.00 86 1014.9
20260906100554 59 0 0.0 2.0 0.00 0.00 0.00 86 1014.7
20260906100104 59 0 0.0 3.0 0.00 0.00 0.00 86 1014.7
20260906095557 59 0 0.0 3.0 0.00 0.00 0.00 86 1014.7
20260906095101 59 0 0.0 2.0 0.00 0.00 0.00 86 1014.7
20260906094607 59 0 0.0 2.0 0.00 0.00 0.00 86 1014.7
20260906094057 59 0 0.0 3.0 0.00 0.00 0.00 86 1014.7
20260906093556 59 0 0.0 4.0 0.00 0.00 0.00 85 1014.7
20260906093107 59 0 0.0 4.0 0.00 0.00 0.00 85 1014.7
20260906092556 59 10 0.0 3.0 0.00 0.00 0.00 86 1014.7
20260906092056 59 0 0.0 3.0 0.00 0.00 0.00 85 1014.6
20260906091601 59 0 0.0 3.0 0.00 0.00 0.00 85 1014.6
20260906091057 59 0 0.0 0.0 0.00 0.00 0.00 85 1014.6
20260906090559 59 0 0.0 0.0 0.00 0.00 0.00 85 1014.7
20260906090117 59 0 0.0 0.0 0.00 0.00 0.00 84 1014.6
20260906085555 59 0 0.0 0.0 0.00 0.00 0.00 84 1014.7
20260906085055 59 0 0.0 0.0 0.00 0.00 0.00 84 1014.7
20260906084618 59 0 0.0 0.0 0.00 0.00 0.00 84 1014.7
20260906084056 60 0 0.0 0.0 0.00 0.00 0.00 84 1014.8
20260906083556 60 0 0.0 0.0 0.00 0.00 0.00 84 1014.7
20260906083109 60 0 0.0 0.0 0.00 0.00 0.00 83 1014.9
20260906082554 60 0 0.0 0.0 0.00 0.00 0.00 83 1014.7
20260906082055 60 0 0.0 0.0 0.00 0.00 0.00 83 1014.9
20260906081601 60 0 0.0 3.0 0.00 0.00 0.00 83 1014.7
20260906081055 60 0 0.0 3.0 0.00 0.00 0.00 83 1014.7
20260906080555 60 0 0.0 2.0 0.00 0.00 0.00 83 1014.6
20260906080126 60 0 0.0 3.0 0.00 0.00 0.00 83 1014.7
20260906075555 60 0 0.0 3.0 0.00 0.00 0.00 83 1014.7
20260906075055 60 0 0.0 3.0 0.00 0.00 0.00 82 1014.9
20260906074610 60 0 0.0 5.0 0.00 0.00 0.00 82 1014.7
20260906074055 60 0 0.0 5.0 0.00 0.00 0.00 82 1014.7
20260906073557 60 0 0.0 5.0 0.00 0.00 0.00 82 1014.8
20260906073114 60 0 0.0 3.0 0.00 0.00 0.00 82 1014.7
20260906072555 60 0 0.0 3.0 0.00 0.00 0.00 82 1014.8
20260906072055 60 0 0.0 0.0 0.00 0.00 0.00 81 1014.8
20260906071602 60 0 0.0 0.0 0.00 0.00 0.00 81 1014.8
20260906071057 60 0 0.0 0.0 0.00 0.00 0.00 81 1014.8
20260906070556 60 0 0.0 0.0 0.00 0.00 0.00 81 1014.8
20260906070106 60 0 0.0 0.0 0.00 0.00 0.00 81 1014.7
20260906065558 60 0 0.0 0.0 0.00 0.00 0.00 81 1014.6
20260906065056 60 0 0.0 0.0 0.00 0.00 0.00 80 1014.7
20260906064558 61 0 0.0 0.0 0.00 0.00 0.00 80 1014.7
20260906064055 61 0 0.0 0.0 0.00 0.00 0.00 80 1014.7
20260906063556 61 0 0.0 4.0 0.00 0.00 0.00 80 1014.8
20260906063101 61 0 0.0 4.0 0.00 0.00 0.00 80 1014.9
20260906062554 61 0 0.0 4.0 0.00 0.00 0.00 79 1014.8
20260906062055 61 0 0.0 3.0 0.00 0.00 0.00 79 1015.0
20260906061606 61 0 0.0 5.0 0.00 0.00 0.00 79 1014.9
20260906061059 61 0 0.0 5.0 0.00 0.00 0.00 79 1014.8
20260906060555 61 0 0.0 3.0 0.00 0.00 0.00 78 1015.0
20260906055555 61 23 0.0 2.0 0.00 0.00 0.00 78 1015.0
20260906055055 61 45 0.0 2.0 0.00 0.00 0.00 78 1015.2
20260906054601 61 0 0.0 3.0 0.00 0.00 0.00 77 1015.1
20260906054058 61 0 0.0 3.0 0.00 0.00 0.00 77 1015.2
20260906053554 61 18 0.0 2.0 0.00 0.00 0.00 77 1015.2
20260906053100 61 51 0.0 1.0 0.00 0.00 0.00 77 1015.1
20260906052601 61 0 0.0 2.0 0.00 0.00 0.00 76 1015.1
20260906052055 61 0 0.0 3.0 0.00 0.00 0.00 76 1015.2
20260906051605 61 0 0.0 3.0 0.00 0.00 0.00 75 1015.2
20260906051056 61 0 0.0 3.0 0.00 0.00 0.00 74 1015.1
20260906050558 61 0 0.0 2.0 0.00 0.00 0.00 73 1015.1
20260906050109 62 0 0.0 2.0 0.00 0.00 0.00 73 1015.1
20260906045557 62 0 0.0 1.0 0.00 0.00 0.00 72 1015.1
20260906045055 62 307 0.0 1.0 0.00 0.00 0.00 72 1015.2
20260906044603 62 0 0.0 0.0 0.00 0.00 0.00 71 1015.2
20260906044058 62 0 0.0 0.0 0.00 0.00 0.00 71 1015.2
20260906043555 62 0 0.0 0.0 0.00 0.00 0.00 71 1015.2
20260906043103 62 0 0.0 0.0 0.00 0.00 0.00 71 1015.3
20260906042555 63 0 0.0 0.0 0.00 0.00 0.00 70 1015.3
20260906042055 63 0 0.0 0.0 0.00 0.00 0.00 69 1015.3
20260906041604 63 0 0.0 0.0 0.00 0.00 0.00 69 1015.4
20260906041054 63 0 0.0 0.0 0.00 0.00 0.00 68 1015.4
20260906040601 63 0 0.0 0.0 0.00 0.00 0.00 68 1015.4
20260906035557 64 0 0.0 0.0 0.00 0.00 0.00 66 1015.4
20260906035057 64 0 0.0 0.0 0.00 0.00 0.00 66 1015.2
20260906034636 64 0 0.0 0.0 0.00 0.00 0.00 66 1015.3
20260906034057 64 0 0.0 0.0 0.00 0.00 0.00 66 1015.3
20260906033557 64 0 0.0 0.0 0.00 0.00 0.00 65 1015.2
20260906033103 65 0 0.0 0.0 0.00 0.00 0.00 65 1015.1
20260906032553 65 0 0.0 1.0 0.00 0.00 0.00 64 1015.1
20260906032054 65 0 0.0 1.0 0.00 0.00 0.00 64 1015.1
20260906031601 65 0 0.0 1.0 0.00 0.00 0.00 63 1015.0
20260906031057 66 0 0.0 0.0 0.00 0.00 0.00 63 1015.0
20260906030558 66 0 0.0 1.0 0.00 0.00 0.00 63 1015.0
20260906030100 66 0 0.0 1.0 0.00 0.00 0.00 63 1015.0
20260906025557 66 0 0.0 4.0 0.00 0.00 0.00 62 1015.0
20260906025057 67 0 0.0 4.0 0.00 0.00 0.00 62 1014.9
20260906024601 67 0 0.0 3.0 0.00 0.00 0.00 61 1015.0
20260906024057 67 293 0.0 1.0 0.00 0.00 0.00 62 1014.9
20260906023554 67 0 0.0 1.0 0.00 0.00 0.00 61 1014.9
20260906023102 68 0 0.0 1.0 0.00 0.00 0.00 61 1014.8
20260906022557 68 0 0.0 1.0 0.00 0.00 0.00 61 1014.9
20260906022054 68 0 0.0 1.0 0.00 0.00 0.00 60 1014.9
20260906021607 68 0 0.0 1.0 0.00 0.00 0.00 60 1014.9
20260906021059 69 0 0.0 1.0 0.00 0.00 0.00 59 1014.9
20260906020557 69 0 0.0 3.0 0.00 0.00 0.00 58 1014.9
20260906020106 69 0 0.0 3.0 0.00 0.00 0.00 57 1014.9
20260906015557 70 0 0.0 2.0 0.00 0.00 0.00 57 1014.9
20260906015057 70 0 0.0 3.0 0.00 0.00 0.00 56 1014.9
20260906014606 70 0 0.0 3.0 0.00 0.00 0.00 55 1015.0
20260906014053 70 279 1.0 4.0 0.00 0.00 0.00 55 1015.1
20260906013557 71 267 1.0 5.0 0.00 0.00 0.00 54 1015.1
20260906013108 71 0 0.0 5.0 0.00 0.00 0.00 54 1015.1
20260906012553 71 259 1.0 6.0 0.00 0.00 0.00 54 1015.0
20260906012057 71 273 2.0 6.0 0.00 0.00 0.00 54 1015.1
20260906011603 71 271 2.0 7.0 0.00 0.00 0.00 53 1015.0
20260906011057 71 298 1.0 7.0 0.00 0.00 0.00 53 1015.0
20260906010557 72 308 2.0 7.0 0.00 0.00 0.00 52 1015.0
20260906005554 72 270 2.0 7.0 0.00 0.01 0.00 51 1014.9
20260906005057 72 296 1.0 7.0 0.00 0.01 0.00 52 1014.9
20260906004605 73 302 1.0 5.0 0.00 0.01 0.00 52 1015.0
20260906004054 73 297 1.0 7.0 0.00 0.01 0.00 52 1015.0
20260906003557 73 274 2.0 7.0 0.00 0.01 0.00 50 1015.0
20260906003105 74 300 2.0 7.0 0.00 0.01 0.00 49 1015.1
20260906002557 74 290 1.0 5.0 0.00 0.01 0.00 48 1015.1
20260906002057 74 25 1.0 5.0 0.00 0.01 0.00 48 1015.0
20260906001559 74 65 1.0 5.0 0.00 0.01 0.00 49 1015.1
20260906001101 74 5 1.0 4.0 0.00 0.01 0.00 51 1015.0
20260906000557 73 51 0.0 5.0 0.00 0.01 0.00 51 1015.0
20260906000111 73 30 2.0 5.0 0.00 0.01 0.00 50 1015.1
20260905235557 74 0 1.0 4.0 0.00 0.01 0.00 52 1015.1
20260905235054 73 0 0.0 4.0 0.00 0.01 0.00 51 1015.0
20260905234621 73 0 2.0 5.0 0.00 0.01 0.00 50 1014.9
20260905234053 73 319 1.0 5.0 0.00 0.01 0.00 51 1015.0
20260905233558 73 200 1.0 3.0 0.00 0.01 0.00 52 1015.0
20260905233102 73 148 0.0 5.0 0.00 0.01 0.00 51 1015.0
20260905232557 73 300 1.0 6.0 0.00 0.01 0.00 51 1015.1
20260905232057 73 299 1.0 6.0 0.00 0.01 0.00 52 1015.1
20260905231605 73 237 0.0 7.0 0.00 0.01 0.00 52 1015.1
20260905231056 72 293 1.0 7.0 0.00 0.01 0.00 51 1015.2
20260905230557 72 339 3.0 7.0 0.00 0.01 0.00 50 1015.2
20260905230106 72 317 1.0 3.0 0.00 0.01 0.00 53 1015.2
20260905225557 72 0 0.0 3.0 0.00 0.03 0.00 53 1015.2
20260905225057 71 269 1.0 4.0 0.00 0.03 0.00 53 1015.3
20260905224616 71 279 1.0 7.0 0.00 0.03 0.00 54 1015.3
20260905224058 71 279 3.0 7.0 0.00 0.03 0.00 54 1015.4
20260905223557 72 230 3.0 8.0 0.00 0.03 0.00 54 1015.4
20260905223100 72 203 3.0 8.0 0.00 0.03 0.00 54 1015.4
20260905222557 72 0 1.0 6.0 0.00 0.03 0.00 54 1015.4
20260905222057 71 254 0.0 6.0 0.00 0.03 0.00 56 1015.5
20260905221602 70 284 1.0 5.0 0.00 0.03 0.00 56 1015.5
20260905221058 70 255 1.0 6.0 0.00 0.03 0.00 57 1015.6
20260905220553 70 0 2.0 6.0 0.00 0.03 0.00 58 1015.5
20260905220118 70 0 2.0 5.0 0.00 0.03 0.00 58 1015.6
20260905215637 70 217 1.0 5.0 0.00 0.13 0.00 58 1015.6
20260905215056 70 0 1.0 6.0 0.00 0.13 0.00 57 1015.7
20260905214603 70 253 3.0 6.0 0.00 0.13 0.00 56 1015.7
20260905214055 70 242 0.0 3.0 0.00 0.13 0.00 55 1015.8
20260905213556 70 0 0.0 4.0 0.00 0.13 0.00 54 1015.8
20260905213059 70 249 1.0 4.0 0.00 0.13 0.00 55 1015.7
20260905212555 71 278 1.0 4.0 0.00 0.13 0.00 55 1015.8
20260905212056 71 0 1.0 4.0 0.00 0.13 0.00 54 1015.8
20260905211602 71 263 1.0 5.0 0.00 0.13 0.00 56 1015.9
20260905211057 70 0 2.0 5.0 0.00 0.13 0.00 56 1015.9
20260905210556 70 0 0.0 4.0 0.00 0.13 0.00 59 1015.9
20260905210108 69 281 1.0 6.0 0.00 0.13 0.00 58 1016.0
20260905205558 70 288 2.0 6.0 0.00 0.13 0.00 56 1016.0
20260905205055 71 272 1.0 3.0 0.00 0.13 0.00 56 1016.1
20260905204559 71 326 0.0 4.0 0.00 0.13 0.00 55 1016.0
20260905204055 71 0 1.0 4.0 0.00 0.13 0.00 55 1016.0
20260905203558 71 0 2.0 6.0 0.00 0.13 0.00 55 1016.1
20260905203117 71 350 1.0 6.0 0.00 0.13 0.00 57 1016.1
20260905202554 70 144 1.0 6.0 0.00 0.13 0.00 57 1016.0
20260905202056 69 99 0.0 4.0 0.00 0.13 0.00 59 1016.1
20260905201603 69 80 1.0 7.0 0.00 0.13 0.00 59 1016.0
20260905201055 69 45 2.0 7.0 0.00 0.13 0.00 59 1016.1
20260905200556 70 27 2.0 5.0 0.00 0.13 0.00 59 1016.1
20260905200107 70 211 1.0 4.0 0.00 0.13 0.00 61 1016.2
20260905195555 70 243 1.0 4.0 0.00 0.13 0.00 61 1016.1
20260905195055 69 282 1.0 8.0 0.00 0.13 0.00 63 1016.2
20260905194558 68 65 1.0 8.0 0.00 0.13 0.00 65 1016.1
20260905194055 67 63 1.0 5.0 0.00 0.13 0.00 66 1016.2
20260905193556 67 36 2.0 5.0 0.00 0.13 0.00 63 1016.3
20260905193103 68 95 2.0 5.0 0.00 0.13 0.00 62 1016.3
20260905192557 69 63 3.0 5.0 0.00 0.13 0.00 61 1016.4
20260905192055 69 0 0.0 5.0 0.00 0.13 0.00 62 1016.3
20260905191605 70 79 1.0 5.0 0.00 0.13 0.00 62 1016.4
20260905191054 70 28 1.0 5.0 0.00 0.13 0.00 60 1016.4
20260905190559 71 24 0.0 7.0 0.00 0.13 0.00 60 1016.4
20260905185600 69 17 2.0 6.0 0.00 0.13 0.00 64 1016.5
20260905185058 68 308 0.0 6.0 0.00 0.13 0.00 67 1016.4
20260905184606 68 329 2.0 6.0 0.00 0.13 0.00 67 1016.5
20260905184100 68 18 1.0 6.0 0.00 0.13 0.00 67 1016.5
20260905183601 67 5 0.0 5.0 0.00 0.13 0.00 68 1016.7
20260905183104 66 0 2.0 5.0 0.00 0.13 0.00 67 1016.7
20260905182554 67 65 1.0 4.0 0.00 0.13 0.00 68 1016.7
20260905182054 66 15 1.0 4.0 0.00 0.13 0.00 69 1016.8
20260905181602 66 0 0.0 7.0 0.00 0.13 0.00 70 1016.7
20260905181055 65 325 0.0 7.0 0.00 0.13 0.00 70 1016.8
20260905180554 65 69 3.0 7.0 0.00 0.13 0.00 71 1016.8
20260905175557 65 0 0.0 4.0 0.00 0.13 0.00 73 1016.8
20260905175058 64 285 1.0 4.0 0.00 0.13 0.00 72 1016.8
20260905174606 65 44 0.0 4.0 0.00 0.13 0.00 73 1016.9
20260905174057 64 327 1.0 5.0 0.00 0.13 0.00 74 1016.9
20260905173554 64 0 2.0 5.0 0.00 0.13 0.00 75 1016.9
20260905173102 64 0 1.0 5.0 0.00 0.13 0.00 75 1016.9
20260905172555 64 0 1.0 5.0 0.00 0.13 0.00 75 1017.0
20260905172058 63 59 2.0 5.0 0.00 0.13 0.00 76 1016.8
20260905171635 63 269 1.0 4.0 0.00 0.13 0.00 78 1016.9
20260905171057 63 40 1.0 4.0 0.00 0.13 0.00 78 1016.9
20260905170558 63 51 1.0 4.0 0.00 0.13 0.00 79 1016.8
20260905170107 63 277 0.0 4.0 0.00 0.13 0.00 80 1017.0
20260905165557 62 0 1.0 4.0 0.00 0.13 0.00 81 1017.0
20260905165057 61 0 0.0 4.0 0.00 0.13 0.00 83 1017.0
20260905164605 61 0 1.0 4.0 0.00 0.13 0.00 85 1016.9
20260905164054 60 0 0.0 3.0 0.00 0.13 0.00 87 1017.0
20260905163557 59 26 0.0 8.0 0.00 0.13 0.00 88 1016.9
20260905163105 59 0 0.0 8.0 0.00 0.13 0.00 89 1016.8
20260905162554 59 15 3.0 8.0 0.00 0.13 0.00 90 1016.7
20260905162055 58 52 2.0 5.0 0.00 0.13 0.00 91 1016.8
20260905161601 58 69 0.0 4.0 0.00 0.13 0.00 92 1016.9
20260905161058 57 70 1.0 4.0 0.00 0.13 0.00 93 1017.1
20260905160557 57 71 2.0 4.0 0.00 0.13 0.00 94 1017.2
20260905160109 57 0 0.0 2.0 0.00 0.13 0.00 95 1017.2
20260905155555 56 0 0.0 1.0 0.00 0.15 0.00 96 1017.0
20260905155057 56 0 0.0 1.0 0.00 0.15 0.00 96 1017.1
20260905154648 56 0 0.0 2.0 0.00 0.15 0.00 96 1017.1
20260905154054 55 0 0.0 2.0 0.00 0.15 0.00 96 1017.1
20260905153553 55 61 0.0 2.0 0.00 0.15 0.00 96 1017.1
20260905153104 55 0 0.0 1.0 0.00 0.15 0.00 96 1017.1
20260905152553 55 0 0.0 2.0 0.00 0.15 0.00 96 1017.1
20260905152053 55 0 0.0 2.0 0.00 0.15 0.00 96 1017.1
20260905151604 55 0 0.0 0.0 0.00 0.15 0.00 96 1016.9
20260905151054 54 0 0.0 0.0 0.00 0.15 0.00 96 1017.1
20260905150555 54 0 0.0 0.0 0.00 0.15 0.00 96 1017.0
20260905150105 54 0 0.0 0.0 0.00 0.15 0.00 96 1017.0
20260905145554 54 0 0.0 0.0 0.00 0.15 0.00 96 1017.2